GW6202 Weather Reports


Display with metric or nautical units.
time (UTC)temp
F
wind
direction
speed
MPH
gust
MPH
rain 1hr
in
rain 24hr
in
rain mn
in
humidity
%
barometer
mb
20260504100315 43 319 0.0 0.0 0.00 0.00 0.00 63 1010.8
20260504081708 44 294 0.0 1.0 0.00 0.00 0.00 59 1011.0
20260504081204 44 273 1.0 1.0 0.00 0.00 0.00 60 1011.2
20260504080701 44 269 1.0 1.0 0.00 0.00 0.00 59 1011.0
20260504080157 44 280 0.0 1.0 0.00 0.00 0.00 58 1011.2
20260504070125 43 329 0.0 0.0 0.00 0.00 0.00 63 1011.0
20260504050514 45 329 0.0 0.0 0.00 0.00 0.00 58 1011.1
20260504050011 46 297 1.0 1.0 0.00 0.00 0.00 58 1011.3
20260504045508 46 309 1.0 1.0 0.00 0.00 0.00 58 1011.2
20260504045003 46 248 2.0 2.0 0.00 0.00 0.00 57 1011.2
20260504044500 46 248 2.0 2.0 0.00 0.00 0.00 58 1011.2
20260504043957 46 323 0.0 0.0 0.00 0.00 0.00 60 1011.0
20260504043454 46 324 0.0 0.0 0.00 0.00 0.00 63 1011.1
20260504042952 45 281 1.0 1.0 0.00 0.00 0.00 62 1011.2
20260504042448 46 314 1.0 1.0 0.00 0.00 0.00 63 1011.4
20260504041945 46 329 0.0 0.0 0.00 0.00 0.00 59 1011.2
20260504041441 46 339 0.0 1.0 0.00 0.00 0.00 60 1011.1
20260504040937 46 331 0.0 0.0 0.00 0.00 0.00 61 1011.2
20260504040435 46 321 0.0 0.0 0.00 0.00 0.00 61 1011.1
20260504035931 45 326 0.0 0.0 0.00 0.00 0.00 64 1011.2
20260504035429 45 322 0.0 0.0 0.00 0.00 0.00 66 1011.2
20260504034925 45 320 0.0 0.0 0.00 0.00 0.00 70 1011.1
20260504034423 46 327 0.0 0.0 0.00 0.00 0.00 62 1011.1
20260504033920 46 327 0.0 0.0 0.00 0.00 0.00 61 1011.4
20260504033418 46 327 0.0 0.0 0.00 0.00 0.00 63 1011.1
20260504032914 46 329 0.0 0.0 0.00 0.00 0.00 59 1011.1
20260504032411 46 329 0.0 1.0 0.00 0.00 0.00 59 1011.3
20260504031908 46 329 0.0 0.0 0.00 0.00 0.00 60 1011.3
20260504031405 46 329 0.0 0.0 0.00 0.00 0.00 59 1011.4
20260504030901 46 329 0.0 0.0 0.00 0.00 0.00 59 1011.3
20260504030359 47 329 0.0 0.0 0.00 0.00 0.00 59 1011.3
20260504025854 47 328 0.0 0.0 0.00 0.00 0.00 59 1011.3
20260504025352 46 327 0.0 0.0 0.00 0.00 0.00 60 1011.6
20260504024848 47 326 0.0 0.0 0.00 0.00 0.00 59 1011.9
20260504024345 47 324 0.0 0.0 0.00 0.00 0.00 58 1011.5
20260504023842 47 340 0.0 1.0 0.00 0.00 0.00 59 1011.4
20260504023339 48 321 0.0 0.0 0.00 0.00 0.00 57 1011.5
20260504022834 47 318 1.0 1.0 0.00 0.00 0.00 55 1011.5
20260504022331 47 302 1.0 1.0 0.00 0.00 0.00 59 1011.9
20260504021828 46 4 0.0 1.0 0.00 0.00 0.00 60 1011.5
20260504021325 46 338 0.0 0.0 0.00 0.00 0.00 62 1011.5
20260504020822 46 348 0.0 0.0 0.00 0.00 0.00 60 1011.5
20260504020319 46 98 1.0 1.0 0.00 0.00 0.00 59 1011.5
20260504015815 47 324 0.0 0.0 0.00 0.00 0.00 59 1011.6
20260504015311 46 345 0.0 1.0 0.00 0.00 0.00 60 1011.5
20260504014807 46 297 1.0 2.0 0.00 0.00 0.00 57 1011.3
20260504014303 46 334 0.0 0.0 0.00 0.00 0.00 59 1011.4
20260504013801 46 358 0.0 0.0 0.00 0.00 0.00 58 1011.4
20260504013259 46 333 0.0 0.0 0.00 0.00 0.00 58 1011.5
20260504012755 46 348 0.0 0.0 0.00 0.00 0.00 57 1011.3
20260504012253 47 331 0.0 0.0 0.00 0.00 0.00 56 1011.6
20260504011750 48 325 0.0 1.0 0.00 0.00 0.00 53 1011.3
20260504011246 48 338 0.0 0.0 0.00 0.00 0.00 54 1011.2
20260504010743 49 340 0.0 0.0 0.00 0.00 0.00 52 1011.3
20260504010238 50 176 2.0 2.0 0.00 0.00 0.00 49 1011.3
20260504005735 51 213 2.0 3.0 0.00 0.00 0.00 47 1011.2
20260504005232 51 293 2.0 2.0 0.00 0.00 0.00 46 1011.2
20260504004730 51 280 0.0 1.0 0.00 0.00 0.00 46 1011.1
20260504004227 51 349 1.0 2.0 0.00 0.00 0.00 45 1011.3
20260504003723 49 322 1.0 3.0 0.00 0.00 0.00 47 1010.9
20260504003220 48 341 0.0 0.0 0.00 0.00 0.00 54 1011.0
20260504002717 48 337 0.0 0.0 0.00 0.00 0.00 56 1011.1
20260504002214 48 336 0.0 0.0 0.00 0.00 0.00 53 1010.6
20260504001712 48 336 0.0 0.0 0.00 0.00 0.00 52 1010.6
20260504001209 48 336 0.0 0.0 0.00 0.00 0.00 53 1010.6
20260504000705 48 336 0.0 0.0 0.00 0.00 0.00 53 1010.7
20260504000204 48 336 0.0 0.0 0.00 0.00 0.00 53 1010.5
20260503235700 49 336 0.0 0.0 0.00 0.00 0.00 51 1010.6
20260503235157 49 335 0.0 0.0 0.00 0.00 0.00 50 1010.4
20260503234655 50 310 0.0 0.0 0.00 0.00 0.00 48 1010.4
20260503234153 51 329 0.0 0.0 0.00 0.00 0.00 48 1010.6
20260503233649 51 286 1.0 1.0 0.00 0.00 0.00 46 1010.6
20260503233145 51 241 1.0 1.0 0.00 0.00 0.00 45 1010.5
20260503232642 51 290 1.0 1.0 0.00 0.00 0.00 46 1010.5
20260503232140 51 209 1.0 2.0 0.00 0.00 0.00 47 1010.4
20260503231638 52 160 1.0 1.0 0.00 0.00 0.00 47 1010.4
20260503231134 52 228 2.0 3.0 0.00 0.00 0.00 45 1010.5
20260503230631 52 307 0.0 0.0 0.00 0.00 0.00 45 1010.4
20260503230128 52 217 2.0 2.0 0.00 0.00 0.00 44 1010.5
20260503225625 52 327 0.0 0.0 0.00 0.00 0.00 44 1010.5
20260503225125 52 252 2.0 2.0 0.00 0.00 0.00 44 1010.3
20260503224622 52 285 1.0 1.0 0.00 0.00 0.00 43 1010.4
20260503224120 52 237 1.0 1.0 0.00 0.00 0.00 43 1010.5
20260503223618 52 244 2.0 3.0 0.00 0.00 0.00 42 1010.6
20260503223114 53 205 2.0 5.0 0.00 0.00 0.00 43 1010.5
20260503222612 53 309 2.0 3.0 0.00 0.00 0.00 42 1010.6
20260503222109 53 220 4.0 6.0 0.00 0.00 0.00 42 1010.6
20260503221607 53 271 5.0 7.0 0.00 0.00 0.00 41 1010.6
20260503221105 53 278 1.0 2.0 0.00 0.00 0.00 43 1010.8
20260503220601 52 319 0.0 1.0 0.00 0.00 0.00 42 1010.9
20260503220058 53 293 5.0 6.0 0.00 0.00 0.00 42 1010.9
20260503215555 54 257 4.0 6.0 0.00 0.00 0.00 41 1010.6
20260503215051 53 350 6.0 8.0 0.00 0.00 0.00 42 1010.8
20260503214550 53 320 5.0 6.0 0.00 0.00 0.00 42 1010.7
20260503214046 52 90 4.0 5.0 0.00 0.00 0.00 44 1010.6
20260503213544 52 23 2.0 3.0 0.00 0.00 0.00 44 1010.6
20260503213041 52 258 4.0 6.0 0.00 0.00 0.00 44 1010.7
20260503212538 52 238 5.0 8.0 0.00 0.00 0.00 44 1010.9
20260503212036 51 190 3.0 5.0 0.00 0.00 0.00 44 1010.7
20260503211533 51 14 5.0 7.0 0.00 0.00 0.00 44 1010.7
20260503211028 51 325 2.0 2.0 0.00 0.00 0.00 44 1010.7
20260503210525 51 281 4.0 6.0 0.00 0.00 0.00 42 1010.7
20260503210021 51 288 5.0 6.0 0.00 0.00 0.00 42 1010.5
20260503205518 52 314 5.0 8.0 0.00 0.00 0.00 41 1010.7
20260503205014 52 241 5.0 7.0 0.00 0.00 0.00 40 1010.3
20260503204511 52 306 3.0 5.0 0.00 0.00 0.00 41 1010.3
20260503204008 52 164 1.0 2.0 0.00 0.00 0.00 41 1010.4
20260503203505 52 354 4.0 6.0 0.00 0.00 0.00 39 1010.6
20260503203002 52 298 3.0 3.0 0.00 0.00 0.00 38 1010.4
20260503202500 52 60 1.0 1.0 0.00 0.00 0.00 39 1010.5
20260503201958 52 323 1.0 1.0 0.00 0.00 0.00 38 1010.4
20260503201456 52 262 2.0 2.0 0.00 0.00 0.00 39 1010.5
20260503200953 52 248 3.0 3.0 0.00 0.00 0.00 39 1010.4
20260503200449 52 268 5.0 8.0 0.00 0.00 0.00 38 1010.5
20260503195946 52 223 1.0 2.0 0.00 0.00 0.00 38 1010.7
20260503195443 52 265 5.0 6.0 0.00 0.00 0.00 37 1010.5
20260503194939 52 279 7.0 9.0 0.00 0.00 0.00 37 1010.8
20260503194437 52 291 2.0 3.0 0.00 0.00 0.00 37 1010.7
20260503193932 51 210 1.0 1.0 0.00 0.00 0.00 38 1010.7
20260503193427 52 214 4.0 6.0 0.00 0.00 0.00 39 1011.0
20260503192923 52 244 5.0 7.0 0.00 0.00 0.00 36 1011.0
20260503192420 52 13 3.0 3.0 0.00 0.00 0.00 36 1010.9
20260503191916 52 202 3.0 3.0 0.00 0.00 0.00 36 1010.9
20260503191414 51 174 4.0 8.0 0.00 0.00 0.00 37 1010.9
20260503190909 51 298 4.0 5.0 0.00 0.00 0.00 37 1011.1
20260503190407 51 13 1.0 1.0 0.00 0.00 0.00 36 1011.1
20260503185903 51 233 8.0 10.0 0.00 0.00 0.00 35 1010.9
20260503185400 51 295 1.0 2.0 0.00 0.00 0.00 35 1011.2
20260503184859 52 117 2.0 2.0 0.00 0.00 0.00 37 1011.2
20260503184356 51 0 3.0 3.0 0.00 0.00 0.00 35 1011.2
20260503183852 52 315 3.0 3.0 0.00 0.00 0.00 35 1011.1
20260503183349 51 209 5.0 7.0 0.00 0.00 0.00 36 1011.4
20260503182846 51 167 3.0 6.0 0.00 0.00 0.00 35 1011.6
20260503182345 50 332 2.0 2.0 0.00 0.00 0.00 36 1011.6
20260503181842 52 222 6.0 7.0 0.00 0.00 0.00 34 1011.6
20260503181339 52 161 4.0 6.0 0.00 0.00 0.00 36 1011.9
20260503180836 51 243 6.0 9.0 0.00 0.00 0.00 35 1011.5
20260503180334 51 322 1.0 2.0 0.00 0.00 0.00 40 1011.7
20260503175830 52 339 2.0 2.0 0.00 0.00 0.00 36 1012.0
20260503175328 50 20 1.0 2.0 0.00 0.00 0.00 37 1012.1
20260503174829 49 202 3.0 3.0 0.00 0.00 0.00 38 1012.2
20260503174327 50 117 2.0 3.0 0.00 0.00 0.00 38 1012.0
20260503173822 50 100 4.0 6.0 0.00 0.00 0.00 37 1012.4
20260503173319 49 0 0.0 1.0 0.00 0.00 0.00 38 1012.0
20260503172816 49 167 3.0 5.0 0.00 0.00 0.00 37 1012.2
20260503172314 48 238 4.0 7.0 0.00 0.00 0.00 37 1012.3
20260503171809 49 163 3.0 5.0 0.00 0.00 0.00 38 1012.3
20260503171306 50 153 3.0 5.0 0.00 0.00 0.00 36 1012.4
20260503170803 48 17 2.0 2.0 0.00 0.00 0.00 39 1012.1
20260503170300 47 300 2.0 3.0 0.00 0.00 0.00 37 1012.2
20260503150652 46 288 1.0 2.0 0.00 0.00 0.00 39 1013.1
20260503150148 46 299 2.0 2.0 0.00 0.00 0.00 40 1013.2
20260503140113 44 49 1.0 3.0 0.00 0.00 0.00 47 1013.2
20260503131042 41 235 3.0 3.0 0.00 0.00 0.00 54 1013.2
20260503130539 40 323 2.0 3.0 0.00 0.00 0.00 57 1013.3
20260503110430 36 187 2.0 2.0 0.00 0.00 0.00 80 1013.0